contact:dominique.lefevre@mio.osupytheas.fr, maurice.libes@osupytheas.fr, didier.mallarino@osupytheas.fr
Project:EMSO http://www.emso-fr.org/EMSO-France
Depth: 2436.0 m
Title:EMSO Ligure Ouest : Data MII capteur CSTAR
DateTime,Latitude,Longitude,Instrument_Serial,Reference_Counts,Signal_Counts,Corrected_Signal_raw_counts,Calculated_Beam_c_inverse_meters,Internal_thermistor_counts
DateTime,Latitude,Longitude,Instrument_Serial,Reference_Counts,Signal_Counts,Corrected_Signal_raw_counts,Calculated_Beam_c_inverse_meters,Internal_thermistor_counts
2023-06-08T00:01:33,42.805,6.029,CST-1368DR,4295,4726,11682,01.161,552
2023-06-08T00:04:34,42.805,6.029,CST-1368DR,4295,4729,11690,01.158,552
2023-06-08T00:07:36,42.805,6.029,CST-1368DR,4295,4726,11682,01.161,552
2023-06-08T00:10:37,42.805,6.029,CST-1368DR,4295,4729,11688,01.159,552
2023-06-08T00:13:39,42.805,6.029,CST-1368DR,4295,4725,11679,01.162,552
2023-06-08T00:16:40,42.805,6.029,CST-1368DR,4295,4728,11687,01.159,552
2023-06-08T00:19:42,42.805,6.029,CST-1368DR,4295,4726,11680,01.162,552
2023-06-08T00:22:44,42.805,6.029,CST-1368DR,4295,4725,11678,01.162,552
2023-06-08T00:25:45,42.805,6.029,CST-1368DR,4295,4728,11685,01.160,552
2023-06-08T00:28:47,42.805,6.029,CST-1368DR,4295,4726,11682,01.161,552
2023-06-08T00:31:48,42.805,6.029,CST-1368DR,4295,4720,11666,01.166,552
2023-06-08T00:34:50,42.805,6.029,CST-1368DR,4295,4726,11681,01.161,552
2023-06-08T00:37:51,42.805,6.029,CST-1368DR,4295,4721,11670,01.165,552
2023-06-08T00:40:53,42.805,6.029,CST-1368DR,4295,4726,11680,01.162,552
2023-06-08T00:43:55,42.805,6.029,CST-1368DR,4295,4724,11676,01.163,552
2023-06-08T00:46:56,42.805,6.029,CST-1368DR,4295,4721,11670,01.165,552
2023-06-08T00:49:58,42.805,6.029,CST-1368DR,4295,4722,11672,01.164,552
2023-06-08T00:52:59,42.805,6.029,CST-1368DR,4295,4715,11654,01.171,552
2023-06-08T00:56:01,42.805,6.029,CST-1368DR,4295,4720,11667,01.166,552
2023-06-08T00:59:03,42.805,6.029,CST-1368DR,4295,4722,11671,01.165,552
2023-06-08T01:02:04,42.805,6.029,CST-1368DR,4295,4719,11664,01.167,552
2023-06-08T01:05:06,42.805,6.029,CST-1368DR,4295,4723,11675,01.163,552
2023-06-08T01:08:07,42.805,6.029,CST-1368DR,4295,4724,11676,01.163,552
2023-06-08T01:11:09,42.805,6.029,CST-1368DR,4295,4724,11676,01.163,552
2023-06-08T01:14:10,42.805,6.029,CST-1368DR,4295,4722,11672,01.164,552
2023-06-08T01:17:12,42.805,6.029,CST-1368DR,4295,4722,11672,01.164,552
2023-06-08T01:20:14,42.805,6.029,CST-1368DR,4295,4719,11664,01.167,552
2023-06-08T01:23:15,42.805,6.029,CST-1368DR,4295,4722,11671,01.165,552
2023-06-08T01:26:17,42.805,6.029,CST-1368DR,4295,4722,11672,01.164,552
2023-06-08T01:29:18,42.805,6.029,CST-1368DR,4295,4720,11667,01.166,552
2023-06-08T01:32:20,42.805,6.029,CST-1368DR,4295,4719,11664,01.167,552
2023-06-08T01:35:21,42.805,6.029,CST-1368DR,4295,4719,11665,01.167,552
2023-06-08T01:38:23,42.805,6.029,CST-1368DR,4295,4723,11673,01.164,552
2023-06-08T01:41:25,42.805,6.029,CST-1368DR,4295,4720,11667,01.166,552
2023-06-08T01:44:26,42.805,6.029,CST-1368DR,4295,4722,11672,01.164,552
2023-06-08T01:47:28,42.805,6.029,CST-1368DR,4295,4717,11659,01.169,552
2023-06-08T01:50:29,42.805,6.029,CST-1368DR,4295,4723,11673,01.164,552
2023-06-08T01:53:31,42.805,6.029,CST-1368DR,4295,4719,11663,01.167,552
2023-06-08T01:56:32,42.805,6.029,CST-1368DR,4295,4718,11662,01.168,552
2023-06-08T01:59:34,42.805,6.029,CST-1368DR,4295,4719,11663,01.167,552
2023-06-08T02:02:36,42.805,6.029,CST-1368DR,4295,4721,11669,01.165,552
2023-06-08T02:05:37,42.805,6.029,CST-1368DR,4295,4721,11668,01.166,552
2023-06-08T02:08:39,42.805,6.029,CST-1368DR,4295,4720,11667,01.166,552
2023-06-08T02:11:40,42.805,6.029,CST-1368DR,4295,4720,11667,01.166,552
2023-06-08T02:14:42,42.805,6.029,CST-1368DR,4295,4722,11672,01.164,552
2023-06-08T02:17:44,42.805,6.029,CST-1368DR,4295,4717,11659,01.169,552
2023-06-08T02:20:45,42.805,6.029,CST-1368DR,4295,4722,11672,01.164,552
2023-06-08T02:23:47,42.805,6.029,CST-1368DR,4295,4721,11670,01.165,552
2023-06-08T02:26:48,42.805,6.029,CST-1368DR,4295,4719,11665,01.167,552
2023-06-08T02:29:50,42.805,6.029,CST-1368DR,4295,4721,11669,01.165,552
2023-06-08T02:32:51,42.805,6.029,CST-1368DR,4295,4722,11671,01.165,552
2023-06-08T02:35:53,42.805,6.029,CST-1368DR,4295,4719,11664,01.167,552
2023-06-08T02:38:55,42.805,6.029,CST-1368DR,4295,4718,11662,01.168,552
2023-06-08T02:41:56,42.805,6.029,CST-1368DR,4295,4718,11662,01.168,552
2023-06-08T02:44:58,42.805,6.029,CST-1368DR,4295,4716,11656,01.170,552
2023-06-08T02:47:59,42.805,6.029,CST-1368DR,4295,4717,11659,01.169,552
2023-06-08T02:51:01,42.805,6.029,CST-1368DR,4295,4720,11666,01.166,552
2023-06-08T02:54:02,42.805,6.029,CST-1368DR,4295,4721,11668,01.166,552
2023-06-08T02:57:04,42.805,6.029,CST-1368DR,4295,4719,11664,01.167,552
2023-06-08T03:00:06,42.805,6.029,CST-1368DR,4295,4717,11659,01.169,552
2023-06-08T03:03:07,42.805,6.029,CST-1368DR,4295,4721,11670,01.165,552
2023-06-08T03:06:09,42.805,6.029,CST-1368DR,4295,4719,11663,01.167,552
2023-06-08T03:09:10,42.805,6.029,CST-1368DR,4295,4720,11667,01.166,552
2023-06-08T03:12:12,42.805,6.029,CST-1368DR,4295,4722,11670,01.165,552
2023-06-08T03:15:14,42.805,6.029,CST-1368DR,4295,4718,11662,01.168,552
2023-06-08T03:18:15,42.805,6.029,CST-1368DR,4295,4718,11661,01.168,552
2023-06-08T03:21:17,42.805,6.029,CST-1368DR,4295,4719,11664,01.167,552
2023-06-08T03:24:18,42.805,6.029,CST-1368DR,4295,4721,11668,01.166,552
2023-06-08T03:27:20,42.805,6.029,CST-1368DR,4295,4720,11667,01.166,552
2023-06-08T03:30:21,42.805,6.029,CST-1368DR,4295,4720,11666,01.166,552
2023-06-08T03:33:23,42.805,6.029,CST-1368DR,4295,4721,11669,01.165,552
2023-06-08T03:36:25,42.805,6.029,CST-1368DR,4295,4720,11666,01.166,552
2023-06-08T03:39:26,42.805,6.029,CST-1368DR,4295,4721,11668,01.166,552
2023-06-08T03:42:28,42.805,6.029,CST-1368DR,4295,4722,11670,01.165,552
2023-06-08T03:45:29,42.805,6.029,CST-1368DR,4295,4721,11670,01.165,552
2023-06-08T03:48:31,42.805,6.029,CST-1368DR,4295,4722,11671,01.165,552
2023-06-08T03:51:32,42.805,6.029,CST-1368DR,4295,4721,11669,01.165,552
2023-06-08T03:54:34,42.805,6.029,CST-1368DR,4295,4720,11666,01.166,552
2023-06-08T03:57:36,42.805,6.029,CST-1368DR,4295,4720,11666,01.166,552
2023-06-08T04:00:37,42.805,6.029,CST-1368DR,4295,4720,11667,01.166,552
2023-06-08T04:03:39,42.805,6.029,CST-1368DR,4295,4719,11664,01.167,552
2023-06-08T04:06:40,42.805,6.029,CST-1368DR,4295,4720,11667,01.166,552
2023-06-08T04:09:42,42.805,6.029,CST-1368DR,4295,4720,11667,01.166,552
2023-06-08T04:12:44,42.805,6.029,CST-1368DR,4295,4719,11664,01.167,552
2023-06-08T04:15:45,42.805,6.029,CST-1368DR,4295,4721,11668,01.166,552
2023-06-08T04:18:47,42.805,6.029,CST-1368DR,4295,4721,11668,01.166,552
2023-06-08T04:21:48,42.805,6.029,CST-1368DR,4295,4720,11666,01.166,552
2023-06-08T04:24:50,42.805,6.029,CST-1368DR,4295,4720,11666,01.166,552
2023-06-08T04:27:51,42.805,6.029,CST-1368DR,4295,4718,11662,01.168,552
2023-06-08T04:30:53,42.805,6.029,CST-1368DR,4295,4720,11666,01.166,552
2023-06-08T04:33:55,42.805,6.029,CST-1368DR,4295,4721,11669,01.165,552
2023-06-08T04:36:56,42.805,6.029,CST-1368DR,4295,4720,11666,01.166,552
2023-06-08T04:39:58,42.805,6.029,CST-1368DR,4295,4720,11667,01.166,552
2023-06-08T04:42:59,42.805,6.029,CST-1368DR,4295,4720,11667,01.166,552
2023-06-08T04:46:01,42.805,6.029,CST-1368DR,4295,4721,11668,01.166,552
2023-06-08T04:49:02,42.805,6.029,CST-1368DR,4295,4719,11664,01.167,552
2023-06-08T04:52:04,42.805,6.029,CST-1368DR,4295,4720,11667,01.166,552
2023-06-08T04:55:06,42.805,6.029,CST-1368DR,4295,4720,11666,01.166,552
2023-06-08T04:58:07,42.805,6.029,CST-1368DR,4295,4719,11664,01.167,552
2023-06-08T05:01:09,42.805,6.029,CST-1368DR,4295,4719,11663,01.167,552
2023-06-08T05:04:10,42.805,6.029,CST-1368DR,4295,4717,11659,01.169,552
2023-06-08T05:07:12,42.805,6.029,CST-1368DR,4295,4720,11667,01.166,552
2023-06-08T05:10:14,42.805,6.029,CST-1368DR,4295,4719,11665,01.167,552
2023-06-08T05:13:15,42.805,6.029,CST-1368DR,4295,4719,11664,01.167,552
2023-06-08T05:16:17,42.805,6.029,CST-1368DR,4295,4720,11667,01.166,552
2023-06-08T05:19:18,42.805,6.029,CST-1368DR,4295,4715,11655,01.170,552
2023-06-08T05:22:20,42.805,6.029,CST-1368DR,4295,4719,11665,01.167,552
2023-06-08T05:25:21,42.805,6.029,CST-1368DR,4295,4716,11657,01.170,552
2023-06-08T05:28:23,42.805,6.029,CST-1368DR,4295,4720,11666,01.166,552
2023-06-08T05:31:25,42.805,6.029,CST-1368DR,4295,4717,11660,01.169,552
2023-06-08T05:34:26,42.805,6.029,CST-1368DR,4295,4717,11659,01.169,552
2023-06-08T05:37:28,42.805,6.029,CST-1368DR,4295,4718,11661,01.168,552
2023-06-08T05:40:29,42.805,6.029,CST-1368DR,4295,4716,11656,01.170,552
2023-06-08T05:43:31,42.805,6.029,CST-1368DR,4295,4717,11659,01.169,552
2023-06-08T05:46:33,42.805,6.029,CST-1368DR,4295,4717,11658,01.169,552
2023-06-08T05:49:34,42.805,6.029,CST-1368DR,4295,4716,11657,01.170,552
2023-06-08T05:52:36,42.805,6.029,CST-1368DR,4295,4716,11657,01.170,552
2023-06-08T05:55:37,42.805,6.029,CST-1368DR,4295,4719,11665,01.167,552
2023-06-08T05:58:39,42.805,6.029,CST-1368DR,4295,4719,11664,01.167,552
2023-06-08T06:01:40,42.805,6.029,CST-1368DR,4295,4719,11665,01.167,552
2023-06-08T06:04:42,42.805,6.029,CST-1368DR,4295,4717,11659,01.169,552
2023-06-08T06:07:44,42.805,6.029,CST-1368DR,4295,4716,11657,01.170,552
2023-06-08T06:10:45,42.805,6.029,CST-1368DR,4295,4717,11660,01.169,552
2023-06-08T06:13:47,42.805,6.029,CST-1368DR,4295,4721,11670,01.165,552
2023-06-08T06:16:48,42.805,6.029,CST-1368DR,4295,4718,11662,01.168,552
2023-06-08T06:19:50,42.805,6.029,CST-1368DR,4295,4720,11667,01.166,552
2023-06-08T06:22:51,42.805,6.029,CST-1368DR,4295,4719,11664,01.167,552
2023-06-08T06:25:53,42.805,6.029,CST-1368DR,4295,4720,11667,01.166,552
2023-06-08T06:28:55,42.805,6.029,CST-1368DR,4295,4719,11664,01.167,552
2023-06-08T06:31:57,42.805,6.029,CST-1368DR,4295,4715,11655,01.170,551
2023-06-08T06:34:58,42.805,6.029,CST-1368DR,4295,4719,11663,01.167,552
2023-06-08T06:38:00,42.805,6.029,CST-1368DR,4295,4719,11665,01.167,552
2023-06-08T06:41:01,42.805,6.029,CST-1368DR,4295,4718,11662,01.168,552
2023-06-08T06:44:03,42.805,6.029,CST-1368DR,4295,4720,11666,01.166,552
2023-06-08T06:47:05,42.805,6.029,CST-1368DR,4295,4716,11656,01.170,552
2023-06-08T06:50:06,42.805,6.029,CST-1368DR,4295,4717,11658,01.169,552
2023-06-08T06:53:08,42.805,6.029,CST-1368DR,4295,4718,11662,01.168,552
2023-06-08T06:56:09,42.805,6.029,CST-1368DR,4295,4716,11657,01.170,552
2023-06-08T06:59:11,42.805,6.029,CST-1368DR,4295,4716,11657,01.170,552
2023-06-08T07:02:12,42.805,6.029,CST-1368DR,4295,4718,11662,01.168,552
2023-06-08T07:05:14,42.805,6.029,CST-1368DR,4295,4716,11656,01.170,552
2023-06-08T07:08:16,42.805,6.029,CST-1368DR,4295,4714,11652,01.171,552
2023-06-08T07:11:17,42.805,6.029,CST-1368DR,4295,4715,11655,01.170,552
2023-06-08T07:14:19,42.805,6.029,CST-1368DR,4295,4715,11654,01.171,552
2023-06-08T07:17:20,42.805,6.029,CST-1368DR,4295,4715,11653,01.171,552
2023-06-08T07:20:22,42.805,6.029,CST-1368DR,4295,4716,11657,01.170,552
2023-06-08T07:23:24,42.805,6.029,CST-1368DR,4295,4714,11652,01.171,552
2023-06-08T07:26:25,42.805,6.029,CST-1368DR,4295,4714,11651,01.172,552
2023-06-08T07:29:27,42.805,6.029,CST-1368DR,4295,4716,11657,01.170,552
2023-06-08T07:32:28,42.805,6.029,CST-1368DR,4295,4717,11659,01.169,552
2023-06-08T07:35:30,42.805,6.029,CST-1368DR,4295,4717,11659,01.169,552
2023-06-08T07:38:31,42.805,6.029,CST-1368DR,4295,4718,11662,01.168,552
2023-06-08T07:41:33,42.805,6.029,CST-1368DR,4295,4719,11663,01.167,552
2023-06-08T07:44:35,42.805,6.029,CST-1368DR,4295,4718,11662,01.168,552
2023-06-08T07:47:36,42.805,6.029,CST-1368DR,4295,4716,11656,01.170,552
2023-06-08T07:50:38,42.805,6.029,CST-1368DR,4295,4715,11655,01.170,552
2023-06-08T07:53:39,42.805,6.029,CST-1368DR,4295,4716,11656,01.170,552
2023-06-08T07:56:41,42.805,6.029,CST-1368DR,4295,4716,11656,01.170,552
2023-06-08T07:59:42,42.805,6.029,CST-1368DR,4295,4714,11651,01.172,552
2023-06-08T08:02:44,42.805,6.029,CST-1368DR,4295,4719,11664,01.167,552
2023-06-08T08:05:46,42.805,6.029,CST-1368DR,4295,4719,11665,01.167,552
2023-06-08T08:08:47,42.805,6.029,CST-1368DR,4295,4717,11658,01.169,552
2023-06-08T08:11:49,42.805,6.029,CST-1368DR,4295,4717,11659,01.169,552
2023-06-08T08:14:50,42.805,6.029,CST-1368DR,4295,4716,11657,01.170,552
2023-06-08T08:17:52,42.805,6.029,CST-1368DR,4295,4717,11660,01.169,552
2023-06-08T08:20:54,42.805,6.029,CST-1368DR,4295,4716,11657,01.170,552
2023-06-08T08:23:55,42.805,6.029,CST-1368DR,4295,4718,11662,01.168,552
2023-06-08T08:26:57,42.805,6.029,CST-1368DR,4295,4718,11661,01.168,552
2023-06-08T08:29:58,42.805,6.029,CST-1368DR,4295,4719,11665,01.167,552
2023-06-08T08:33:00,42.805,6.029,CST-1368DR,4295,4720,11667,01.166,552
2023-06-08T08:36:01,42.805,6.029,CST-1368DR,4295,4717,11660,01.169,552
2023-06-08T08:39:03,42.805,6.029,CST-1368DR,4295,4715,11653,01.171,552
2023-06-08T08:42:05,42.805,6.029,CST-1368DR,4295,4714,11652,01.171,552
2023-06-08T08:45:06,42.805,6.029,CST-1368DR,4295,4718,11661,01.168,552
2023-06-08T08:48:08,42.805,6.029,CST-1368DR,4295,4719,11663,01.167,552
2023-06-08T08:51:09,42.805,6.029,CST-1368DR,4295,4718,11662,01.168,552
2023-06-08T08:54:11,42.805,6.029,CST-1368DR,4295,4728,11687,01.159,552
2023-06-08T08:57:12,42.805,6.029,CST-1368DR,4295,4720,11667,01.166,552
2023-06-08T09:00:14,42.805,6.029,CST-1368DR,4295,4720,11666,01.166,552
2023-06-08T09:03:16,42.805,6.029,CST-1368DR,4295,4721,11669,01.165,552
2023-06-08T09:06:17,42.805,6.029,CST-1368DR,4295,4720,11667,01.166,552
2023-06-08T09:09:19,42.805,6.029,CST-1368DR,4295,4720,11667,01.166,552
2023-06-08T09:12:20,42.805,6.029,CST-1368DR,4295,4719,11665,01.167,552
2023-06-08T09:15:22,42.805,6.029,CST-1368DR,4295,4720,11666,01.166,552
2023-06-08T09:18:24,42.805,6.029,CST-1368DR,4295,4720,11666,01.166,552
2023-06-08T09:21:25,42.805,6.029,CST-1368DR,4295,4722,11671,01.165,552
2023-06-08T09:24:27,42.805,6.029,CST-1368DR,4295,4720,11666,01.166,552
2023-06-08T09:27:28,42.805,6.029,CST-1368DR,4295,4722,11672,01.164,552
2023-06-08T09:30:30,42.805,6.029,CST-1368DR,4295,4722,11672,01.164,552
2023-06-08T09:33:31,42.805,6.029,CST-1368DR,4295,4720,11667,01.166,552
2023-06-08T09:36:33,42.805,6.029,CST-1368DR,4295,4720,11666,01.166,552
2023-06-08T09:39:35,42.805,6.029,CST-1368DR,4295,4722,11671,01.165,552
2023-06-08T09:42:36,42.805,6.029,CST-1368DR,4295,4721,11668,01.166,552
2023-06-08T09:45:38,42.805,6.029,CST-1368DR,4295,4721,11670,01.165,552
2023-06-08T09:48:39,42.805,6.029,CST-1368DR,4295,4722,11672,01.164,552
2023-06-08T09:51:41,42.805,6.029,CST-1368DR,4295,4720,11667,01.166,552
2023-06-08T09:54:42,42.805,6.029,CST-1368DR,4295,4723,11674,01.164,552
2023-06-08T09:57:44,42.805,6.029,CST-1368DR,4295,4715,11654,01.171,552
2023-06-08T10:00:46,42.805,6.029,CST-1368DR,4295,4715,11655,01.170,552
2023-06-08T10:03:47,42.805,6.029,CST-1368DR,4295,4716,11656,01.170,552
2023-06-08T10:06:49,42.805,6.029,CST-1368DR,4295,4715,11655,01.170,552
2023-06-08T10:09:50,42.805,6.029,CST-1368DR,4295,4718,11661,01.168,552
2023-06-08T10:12:52,42.805,6.029,CST-1368DR,4295,4717,11658,01.169,552
2023-06-08T10:15:54,42.805,6.029,CST-1368DR,4295,4719,11664,01.167,552
2023-06-08T10:18:55,42.805,6.029,CST-1368DR,4295,4715,11654,01.171,552
2023-06-08T10:21:57,42.805,6.029,CST-1368DR,4295,4717,11660,01.169,552
2023-06-08T10:24:58,42.805,6.029,CST-1368DR,4295,4717,11659,01.169,552
2023-06-08T10:28:00,42.805,6.029,CST-1368DR,4295,4719,11663,01.167,552
2023-06-08T10:31:01,42.805,6.029,CST-1368DR,4295,4715,11654,01.171,552
2023-06-08T10:34:03,42.805,6.029,CST-1368DR,4295,4716,11656,01.170,552
2023-06-08T10:37:05,42.805,6.029,CST-1368DR,4295,4715,11654,01.171,552
2023-06-08T10:40:06,42.805,6.029,CST-1368DR,4295,4715,11655,01.170,552
2023-06-08T10:43:08,42.805,6.029,CST-1368DR,4295,4719,11664,01.167,552
2023-06-08T10:46:09,42.805,6.029,CST-1368DR,4295,4717,11659,01.169,552
2023-06-08T10:49:11,42.805,6.029,CST-1368DR,4295,4717,11659,01.169,552
2023-06-08T10:52:13,42.805,6.029,CST-1368DR,4295,4717,11658,01.169,552
2023-06-08T10:55:14,42.805,6.029,CST-1368DR,4295,4720,11666,01.166,552
2023-06-08T10:58:16,42.805,6.029,CST-1368DR,4295,4717,11659,01.169,552
2023-06-08T11:01:17,42.805,6.029,CST-1368DR,4295,4719,11664,01.167,552
2023-06-08T11:04:19,42.805,6.029,CST-1368DR,4295,4717,11660,01.169,552
2023-06-08T11:07:20,42.805,6.029,CST-1368DR,4295,4720,11666,01.166,552
2023-06-08T11:10:22,42.805,6.029,CST-1368DR,4295,4721,11668,01.166,552
2023-06-08T11:13:24,42.805,6.029,CST-1368DR,4295,4718,11662,01.168,552
2023-06-08T11:16:25,42.805,6.029,CST-1368DR,4295,4719,11663,01.167,552
2023-06-08T11:19:27,42.805,6.029,CST-1368DR,4295,4719,11665,01.167,552
2023-06-08T11:22:28,42.805,6.029,CST-1368DR,4295,4719,11664,01.167,552
2023-06-08T11:25:30,42.805,6.029,CST-1368DR,4295,4717,11658,01.169,552
2023-06-08T11:28:31,42.805,6.029,CST-1368DR,4295,4718,11662,01.168,552
2023-06-08T11:31:33,42.805,6.029,CST-1368DR,4295,4718,11662,01.168,552
2023-06-08T11:34:35,42.805,6.029,CST-1368DR,4295,4717,11659,01.169,552
2023-06-08T11:37:36,42.805,6.029,CST-1368DR,4295,4719,11665,01.167,552
2023-06-08T11:40:38,42.805,6.029,CST-1368DR,4294,4717,11663,01.167,552
2023-06-08T11:43:39,42.805,6.029,CST-1368DR,4294,4718,11665,01.167,552
2023-06-08T11:46:41,42.805,6.029,CST-1368DR,4294,4718,11664,01.167,552
2023-06-08T11:49:43,42.805,6.029,CST-1368DR,4295,4719,11663,01.167,552
2023-06-08T11:52:44,42.805,6.029,CST-1368DR,4295,4717,11659,01.169,552
2023-06-08T11:55:46,42.805,6.029,CST-1368DR,4295,4719,11664,01.167,552
2023-06-08T11:58:47,42.805,6.029,CST-1368DR,4295,4719,11664,01.167,552
2023-06-08T12:01:49,42.805,6.029,CST-1368DR,4294,4719,11667,01.166,552
2023-06-08T12:04:50,42.805,6.029,CST-1368DR,4295,4718,11661,01.168,552
2023-06-08T12:07:52,42.805,6.029,CST-1368DR,4294,4718,11664,01.167,552
2023-06-08T12:10:54,42.805,6.029,CST-1368DR,4294,4715,11656,01.170,552
2023-06-08T12:13:55,42.805,6.029,CST-1368DR,4294,4718,11665,01.167,552
2023-06-08T12:16:57,42.805,6.029,CST-1368DR,4295,4719,11665,01.167,552
2023-06-08T12:19:58,42.805,6.029,CST-1368DR,4295,4717,11659,01.169,552
2023-06-08T12:23:00,42.805,6.029,CST-1368DR,4294,4718,11665,01.167,552
2023-06-08T12:26:01,42.805,6.029,CST-1368DR,4294,4719,11668,01.166,552
2023-06-08T12:29:03,42.805,6.029,CST-1368DR,4295,4720,11667,01.166,552
2023-06-08T12:32:05,42.805,6.029,CST-1368DR,4295,4717,11659,01.169,552
2023-06-08T12:35:07,42.805,6.029,CST-1368DR,4294,4717,11663,01.167,552
2023-06-08T12:38:09,42.805,6.029,CST-1368DR,4294,4718,11664,01.167,552
2023-06-08T12:41:10,42.805,6.029,CST-1368DR,4295,4718,11662,01.168,552
2023-06-08T12:44:12,42.805,6.029,CST-1368DR,4294,4712,11649,01.172,552
2023-06-08T12:47:13,42.805,6.029,CST-1368DR,4294,4717,11663,01.167,552
2023-06-08T12:50:15,42.805,6.029,CST-1368DR,4294,4720,11669,01.165,552
2023-06-08T12:53:17,42.805,6.029,CST-1368DR,4294,4719,11666,01.166,552
2023-06-08T12:56:18,42.805,6.029,CST-1368DR,4295,4719,11663,01.167,552
2023-06-08T12:59:20,42.805,6.029,CST-1368DR,4295,4720,11667,01.166,552
2023-06-08T13:02:21,42.805,6.029,CST-1368DR,4294,4716,11660,01.169,552
2023-06-08T13:05:23,42.805,6.029,CST-1368DR,4294,4718,11664,01.167,552
2023-06-08T13:08:24,42.805,6.029,CST-1368DR,4294,4720,11669,01.165,552
2023-06-08T13:11:26,42.805,6.029,CST-1368DR,4294,4721,11671,01.165,552
2023-06-08T13:14:28,42.805,6.029,CST-1368DR,4294,4721,11672,01.164,552
2023-06-08T13:17:29,42.805,6.029,CST-1368DR,4294,4720,11669,01.165,552
2023-06-08T13:20:31,42.805,6.029,CST-1368DR,4294,4719,11666,01.166,552
2023-06-08T13:23:32,42.805,6.029,CST-1368DR,4294,4719,11666,01.166,552
2023-06-08T13:26:34,42.805,6.029,CST-1368DR,4294,4717,11663,01.167,552
2023-06-08T13:29:35,42.805,6.029,CST-1368DR,4294,4718,11665,01.167,552
2023-06-08T13:32:37,42.805,6.029,CST-1368DR,4294,4718,11664,01.167,552
2023-06-08T13:35:39,42.805,6.029,CST-1368DR,4294,4717,11661,01.168,552
2023-06-08T13:38:40,42.805,6.029,CST-1368DR,4294,4719,11667,01.166,552
2023-06-08T13:41:42,42.805,6.029,CST-1368DR,4294,4723,11676,01.163,552
2023-06-08T13:44:43,42.805,6.029,CST-1368DR,4294,4719,11667,01.166,552
2023-06-08T13:47:45,42.805,6.029,CST-1368DR,4294,4717,11663,01.167,552
2023-06-08T13:50:46,42.805,6.029,CST-1368DR,4294,4719,11668,01.166,552
2023-06-08T13:53:48,42.805,6.029,CST-1368DR,4294,4722,11675,01.163,552
2023-06-08T13:56:50,42.805,6.029,CST-1368DR,4294,4722,11673,01.164,552
2023-06-08T13:59:51,42.805,6.029,CST-1368DR,4294,4712,11650,01.172,552
2023-06-08T14:02:53,42.805,6.029,CST-1368DR,4294,4720,11668,01.166,552
2023-06-08T14:05:54,42.805,6.029,CST-1368DR,4294,4718,11664,01.167,552
2023-06-08T14:08:56,42.805,6.029,CST-1368DR,4294,4722,11673,01.164,552
2023-06-08T14:11:58,42.805,6.029,CST-1368DR,4294,4721,11671,01.165,552
2023-06-08T14:14:59,42.805,6.029,CST-1368DR,4294,4722,11674,01.164,552
2023-06-08T14:18:01,42.805,6.029,CST-1368DR,4294,4721,11671,01.165,552
2023-06-08T14:21:02,42.805,6.029,CST-1368DR,4294,4721,11671,01.165,552
2023-06-08T14:24:04,42.805,6.029,CST-1368DR,4294,4722,11674,01.164,552
2023-06-08T14:27:05,42.805,6.029,CST-1368DR,4294,4721,11671,01.165,552
2023-06-08T14:30:07,42.805,6.029,CST-1368DR,4294,4720,11669,01.165,552
2023-06-08T14:33:09,42.805,6.029,CST-1368DR,4294,4717,11661,01.168,552
2023-06-08T14:36:10,42.805,6.029,CST-1368DR,4294,4711,11648,01.173,552
2023-06-08T14:39:12,42.805,6.029,CST-1368DR,4294,4715,11658,01.169,552
2023-06-08T14:42:13,42.805,6.029,CST-1368DR,4294,4714,11655,01.170,552
2023-06-08T14:45:15,42.805,6.029,CST-1368DR,4294,4716,11658,01.169,552
2023-06-08T14:48:16,42.805,6.029,CST-1368DR,4294,4716,11659,01.169,552
2023-06-08T14:51:18,42.805,6.029,CST-1368DR,4294,4717,11661,01.168,552
2023-06-08T14:54:20,42.805,6.029,CST-1368DR,4294,4717,11663,01.167,552
2023-06-08T14:57:21,42.805,6.029,CST-1368DR,4294,4715,11658,01.169,552
2023-06-08T15:00:23,42.805,6.029,CST-1368DR,4294,4715,11657,01.170,552
2023-06-08T15:03:24,42.805,6.029,CST-1368DR,4294,4715,11658,01.169,552
2023-06-08T15:06:26,42.805,6.029,CST-1368DR,4294,4717,11661,01.168,552
2023-06-08T15:09:28,42.805,6.029,CST-1368DR,4294,4715,11657,01.170,552
2023-06-08T15:12:29,42.805,6.029,CST-1368DR,4294,4717,11663,01.167,552
2023-06-08T15:15:31,42.805,6.029,CST-1368DR,4294,4716,11660,01.169,552
2023-06-08T15:18:32,42.805,6.029,CST-1368DR,4294,4717,11661,01.168,552
2023-06-08T15:21:34,42.805,6.029,CST-1368DR,4294,4719,11666,01.166,552
2023-06-08T15:24:35,42.805,6.029,CST-1368DR,4294,4716,11659,01.169,552
2023-06-08T15:27:37,42.805,6.029,CST-1368DR,4294,4717,11662,01.168,552
2023-06-08T15:30:39,42.805,6.029,CST-1368DR,4294,4716,11659,01.169,552
2023-06-08T15:33:40,42.805,6.029,CST-1368DR,4294,4717,11663,01.167,552
2023-06-08T15:36:42,42.805,6.029,CST-1368DR,4294,4718,11664,01.167,552
2023-06-08T15:39:43,42.805,6.029,CST-1368DR,4294,4720,11669,01.165,552
2023-06-08T15:42:45,42.805,6.029,CST-1368DR,4294,4719,11666,01.166,552
2023-06-08T15:45:47,42.805,6.029,CST-1368DR,4294,4716,11660,01.169,552
2023-06-08T15:48:48,42.805,6.029,CST-1368DR,4294,4718,11664,01.167,552
2023-06-08T15:51:50,42.805,6.029,CST-1368DR,4294,4715,11656,01.170,552
2023-06-08T15:54:51,42.805,6.029,CST-1368DR,4294,4715,11656,01.170,552
2023-06-08T15:57:53,42.805,6.029,CST-1368DR,4294,4715,11657,01.170,552
2023-06-08T16:00:54,42.805,6.029,CST-1368DR,4294,4717,11661,01.168,552
2023-06-08T16:03:56,42.805,6.029,CST-1368DR,4294,4717,11661,01.168,552
2023-06-08T16:06:58,42.805,6.029,CST-1368DR,4294,4716,11658,01.169,552
2023-06-08T16:09:59,42.805,6.029,CST-1368DR,4294,4714,11655,01.170,552
2023-06-08T16:13:01,42.805,6.029,CST-1368DR,4294,4715,11656,01.170,552
2023-06-08T16:16:02,42.805,6.029,CST-1368DR,4294,4716,11659,01.169,552
2023-06-08T16:19:04,42.805,6.029,CST-1368DR,4294,4714,11654,01.171,552
2023-06-08T16:22:05,42.805,6.029,CST-1368DR,4294,4715,11656,01.170,552
2023-06-08T16:25:07,42.805,6.029,CST-1368DR,4294,4716,11658,01.169,552
2023-06-08T16:28:09,42.805,6.029,CST-1368DR,4294,4714,11654,01.171,552
2023-06-08T16:31:11,42.805,6.029,CST-1368DR,4294,4715,11656,01.170,552
2023-06-08T16:34:12,42.805,6.029,CST-1368DR,4294,4714,11653,01.171,552
2023-06-08T16:37:14,42.805,6.029,CST-1368DR,4294,4715,11657,01.170,552